This is the latest recevied weather packets stored in our database for station/object SP5EB-3. If no packets are shown the sender has not sent any weather packets the latest 10 day(s).
| Time | Temp. | Humidity | Pressure | Rain* | Wind** | Luminosity | Snow |
|---|---|---|---|---|---|---|---|
| 1777418552 | 3.89° C | 99% | 1022.9 hPa | - | - | - | - |
| 1777418246 | 3.89° C | 99% | 1022.8 hPa | - | - | - | - |
| 1777417940 | 4.44° C | 99% | 1022.8 hPa | - | - | - | - |
| 1777417633 | 4.44° C | 99% | 1022.8 hPa | - | - | - | - |
| 1777417327 | 4.44° C | 99% | 1022.8 hPa | - | - | - | - |
| 1777417021 | 4.44° C | 99% | 1022.8 hPa | - | - | - | - |
| 1777416715 | 5° C | 99% | 1022.8 hPa | - | - | - | - |
| 1777416408 | 5° C | 99% | 1022.9 hPa | - | - | - | - |
| 1777416102 | 5° C | 99% | 1022.8 hPa | - | - | - | - |
| 1777415795 | 5° C | 99% | 1022.8 hPa | - | - | - | - |
| 1777415488 | 5.56° C | 99% | 1022.8 hPa | - | - | - | - |
| 1777415182 | 5.56° C | 99% | 1022.7 hPa | - | - | - | - |
| 1777414876 | 5.56° C | 99% | 1022.9 hPa | - | - | - | - |
| 1777414570 | 5.56° C | 99% | 1022.8 hPa | - | - | - | - |
| 1777414263 | 6.11° C | 99% | 1022.8 hPa | - | - | - | - |
| 1777413956 | 6.11° C | 99% | 1022.8 hPa | - | - | - | - |
| 1777413649 | 6.11° C | 99% | 1022.7 hPa | - | - | - | - |
| 1777413343 | 6.67° C | 99% | 1022.6 hPa | - | - | - | - |
| 1777413037 | 6.67° C | 99% | 1022.6 hPa | - | - | - | - |
| 1777412730 | 6.67° C | 99% | 1022.4 hPa | - | - | - | - |
| 1777412424 | 6.67° C | 99% | 1022.4 hPa | - | - | - | - |
| 1777411810 | 7.22° C | 99% | 1022.3 hPa | - | - | - | - |
| 1777411503 | 7.22° C | 99% | 1022.4 hPa | - | - | - | - |
| 1777411197 | 7.22° C | 99% | 1022.2 hPa | - | - | - | - |
| 1777410890 | 7.78° C | 99% | 1022.2 hPa | - | - | - | - |
* Rain since midnight (hover to see other rain measurements)
** Current wind speed in m/s (hover to see current wind gust speed)